Home   Weather   Kingston   Past weeks

Flag for Canada Past Weather in Kingston, Ontario, Canada — Yesterday and Last 2 Weeks

Now
34 °F

Broken clouds.


Feels Like: 24 °F
Forecast: 29 / 35 °F
Wind: 15 mph from West

Location: Kingston

Current Time: Dec 8, 2016 at 3:20:54 pm

Latest Report: Dec 8, 2016 at 3:00 pm


Visibility: 15 mi

Pressure: 29.85 "Hg

Humidity: 56%

Dew Point: 19 °F

Location of KingstonLocation

Past Weather in Kingston — Graph

°F

Kingston Temperature Yesterday

Maximum temperature yesterday: 41 °F (at 6:00 am)
Minimum temperature yesterday: 36 °F (at 6:00 pm)
Average temperature yesterday: 38 °F

High & Low Weather Summary for the Past Weeks

 TemperatureHumidityPressure
High52 °F (Nov 30, 12:00 pm)100% (Nov 25, 6:00 am)30.35 "Hg (Nov 25, 6:00 am)
Low25 °F (Nov 27, 9:00 pm)52% (Dec 8, 1:00 pm)29.35 "Hg (Nov 30, 11:00 pm)
Average37 °F80%29.99 "Hg
* Reported Nov 23 2:00 pm — Dec 8 2:00 pm, Kingston, Weather by CustomWeather, © 2016

Note: Actual official high and low records may vary slightly from our data, if they occured in-between our weather recording intervals... More about our weather records

Advertising

Kingston Weather History for the Previous 24 Hours

Scroll right to see more
 ConditionsComfort  
Time TempWeatherWind HumidityBarometerVisibility
2:00 pm
Thu, Dec 8
34 °FBroken clouds.17 mph60%29.83 "Hg15 mi
1:00 pm37 °FPartly sunny.16 mph52%29.82 "Hg15 mi
12:00 pm34 °FScattered showers. Partly sunny.18 mph65%29.84 "Hg15 mi
11:00 am36 °FMore clouds than sun.18 mph60%29.85 "Hg15 mi
10:00 am36 °FScattered showers. Partly sunny.14 mph60%29.85 "Hg15 mi
9:00 am36 °FPartly sunny.14 mph65%29.85 "Hg15 mi
8:00 am36 °FScattered showers. Partly sunny.14 mph65%29.84 "Hg15 mi
7:00 am36 °FPassing clouds.23 mph60%29.85 "Hg15 mi
6:00 am34 °FPassing clouds.12 mph70%29.86 "Hg15 mi
11:00 pm
Wed, Dec 7
36 °FMostly cloudy.10 mph70%29.93 "Hg15 mi
10:00 pm37 °FMostly cloudy.6 mph70%29.94 "Hg15 mi
9:00 pm36 °FPassing clouds.5 mph70%29.96 "Hg15 mi
8:00 pm36 °FPassing clouds.8 mph65%29.97 "Hg15 mi
7:00 pm37 °FPassing clouds.9 mph65%29.97 "Hg15 mi
6:00 pm36 °FPassing clouds.7 mph60%29.97 "Hg15 mi
5:00 pm37 °FPassing clouds.8 mph65%29.97 "Hg15 mi
4:00 pm37 °FPartly sunny.10 mph65%29.97 "Hg15 mi
3:00 pm37 °FPartly sunny.14 mph60%29.94 "Hg15 mi
Weather by CustomWeather, © 2016

See weather overviewHow to use our weather pages